Location: La Bilong�re
(48.1297°N, 1.4584°W)
Time: 02:54:19
(UTC+00:00)

Aureole 2 Rocket - Pass Details

Date: 03 March 2021
Orbit: 276 x 344 km, 73.9° (Epoch: 12 April)

Event Time Altitude Azimuth Distance (km) Brightness Sun altitude
Rises 19:02:03 0° 335° (NNW) 1,988 6.1 -12.2°
Reaches altitude 10° 19:03:59 10° 333° (NNW) 1,147 4.9 -12.6°
Maximum altitude 19:06:27 68° 250° (WSW) 311 1.8 -13.0°
Drops below altitude 10° 19:08:50 10° 165° (SSE) 1,111 4.2 -13.4°
Enters shadow 19:08:56 - 165° (SSE) 1,151 4.3 -13.4°
